Time,TemperatureF,DewpointF,PressureIn,WindDirection,WindDirectionDegrees,WindSpeedMPH,WindSpeedGustMPH,Humidity,HourlyPrecipIn,Conditions,Clouds,dailyrainin,SoftwareType,DateUTC
2013-07-19 00:02:00,82.0,70.4,29.95,SSW,202,2.2,-999.0,68,-99.99,,,0.00,Acu-Link.com,2013-07-19 05:02:00,
2013-07-19 00:17:00,81.9,70.7,29.95,SSW,202,2.7,-999.0,69,-99.99,,,0.00,Acu-Link.com,2013-07-19 05:17:00,
2013-07-19 00:33:00,81.3,70.6,29.94,SW,225,2.7,-999.0,70,-99.99,,,0.00,Acu-Link.com,2013-07-19 05:33:00,
2013-07-19 00:48:00,81.1,70.4,29.93,SW,225,3.2,-999.0,70,-99.99,,,0.00,Acu-Link.com,2013-07-19 05:48:00,
2013-07-19 01:03:00,81.1,70.4,29.93,SSW,202,3.2,-999.0,70,-99.99,,,0.00,Acu-Link.com,2013-07-19 06:03:00,
2013-07-19 01:18:00,80.8,70.5,29.92,South,180,3.7,-999.0,71,-99.99,,,0.00,Acu-Link.com,2013-07-19 06:18:00,
2013-07-19 01:33:00,80.4,70.1,29.92,SW,225,2.7,-999.0,71,-99.99,,,0.00,Acu-Link.com,2013-07-19 06:33:00,
2013-07-19 01:49:00,80.2,69.9,29.92,SW,225,2.7,-999.0,71,-99.99,,,0.00,Acu-Link.com,2013-07-19 06:49:00,
2013-07-19 02:04:00,80.1,69.8,29.92,West,270,3.7,-999.0,71,-99.99,,,0.00,Acu-Link.com,2013-07-19 07:04:00,
2013-07-19 02:19:00,80.1,69.8,29.91,SW,225,4.2,-999.0,71,-99.99,,,0.00,Acu-Link.com,2013-07-19 07:19:00,
2013-07-19 02:34:00,79.7,69.0,29.91,SSW,202,3.7,-999.0,70,-99.99,,,0.00,Acu-Link.com,2013-07-19 07:34:00,
2013-07-19 02:50:00,79.5,69.3,29.90,SSW,202,4.2,-999.0,71,-99.99,,,0.00,Acu-Link.com,2013-07-19 07:50:00,
2013-07-19 03:05:00,79.5,69.3,29.91,West,270,3.7,-999.0,71,-99.99,,,0.00,Acu-Link.com,2013-07-19 08:05:00,
2013-07-19 03:20:00,79.3,69.5,29.91,WSW,247,2.7,-999.0,72,-99.99,,,0.00,Acu-Link.com,2013-07-19 08:20:00,
2013-07-19 03:36:00,79.2,69.8,29.90,SW,225,2.7,-999.0,73,-99.99,,,0.00,Acu-Link.com,2013-07-19 08:36:00,
2013-07-19 03:51:00,78.8,69.4,29.89,SSW,202,2.7,-999.0,73,-99.99,,,0.00,Acu-Link.com,2013-07-19 08:51:00,
2013-07-19 04:06:00,78.4,69.0,29.88,WSW,247,4.2,-999.0,73,-99.99,,,0.00,Acu-Link.com,2013-07-19 09:06:00,
2013-07-19 04:21:00,78.4,69.0,29.88,West,270,3.2,-999.0,73,-99.99,,,0.00,Acu-Link.com,2013-07-19 09:21:00,
2013-07-19 04:36:00,78.4,69.0,29.88,SSW,202,3.2,-999.0,73,-99.99,,,0.00,Acu-Link.com,2013-07-19 09:36:00,
2013-07-19 04:52:00,78.4,69.0,29.88,SSW,202,4.2,-999.0,73,-99.99,,,0.00,Acu-Link.com,2013-07-19 09:52:00,
2013-07-19 05:07:00,78.4,69.0,29.87,West,270,4.2,-999.0,73,-99.99,,,0.00,Acu-Link.com,2013-07-19 10:07:00,
2013-07-19 05:22:00,78.4,69.0,29.88,SSW,202,3.7,-999.0,73,-99.99,,,0.00,Acu-Link.com,2013-07-19 10:22:00,
2013-07-19 05:38:00,78.3,69.3,29.88,SSW,202,3.7,-999.0,74,-99.99,,,0.00,Acu-Link.com,2013-07-19 10:38:00,
2013-07-19 05:53:00,78.3,69.3,29.87,SW,225,3.2,-999.0,74,-99.99,,,0.00,Acu-Link.com,2013-07-19 10:53:00,
2013-07-19 06:08:00,78.4,69.0,29.88,SW,225,3.7,-999.0,73,-99.99,,,0.00,Acu-Link.com,2013-07-19 11:08:00,
2013-07-19 06:24:00,79.2,69.4,29.88,SW,225,4.2,-999.0,72,-99.99,,,0.00,Acu-Link.com,2013-07-19 11:24:00,
2013-07-19 06:39:00,79.9,69.6,29.88,SW,225,6.3,-999.0,71,-99.99,,,0.00,Acu-Link.com,2013-07-19 11:39:00,
2013-07-19 06:54:00,80.8,69.7,29.88,SW,225,2.7,-999.0,69,-99.99,,,0.00,Acu-Link.com,2013-07-19 11:54:00,
2013-07-19 07:09:00,81.7,69.7,29.88,WSW,247,4.7,-999.0,67,-99.99,,,0.00,Acu-Link.com,2013-07-19 12:09:00,
2013-07-19 07:24:00,82.2,69.7,29.88,SSW,202,0.0,-999.0,66,-99.99,,,0.00,Acu-Link.com,2013-07-19 12:24:00,
2013-07-19 07:40:00,83.5,69.6,29.89,SW,225,4.2,-999.0,63,-99.99,,,0.00,Acu-Link.com,2013-07-19 12:40:00,
2013-07-19 07:55:00,83.3,69.4,29.89,SSW,202,2.7,-999.0,63,-99.99,,,0.00,Acu-Link.com,2013-07-19 12:55:00,
2013-07-19 08:10:00,84.7,69.2,29.89,SSW,202,2.7,-999.0,60,-99.99,,,0.00,Acu-Link.com,2013-07-19 13:10:00,
2013-07-19 08:26:00,83.8,68.9,29.89,SW,225,2.2,-999.0,61,-99.99,,,0.00,Acu-Link.com,2013-07-19 13:26:00,
2013-07-19 08:41:00,84.0,68.1,29.89,SSW,202,3.2,-999.0,59,-99.99,,,0.00,Acu-Link.com,2013-07-19 13:41:00,
2013-07-19 08:56:00,84.9,68.4,29.90,WSW,247,3.7,-999.0,58,-99.99,,,0.00,Acu-Link.com,2013-07-19 13:56:00,
2013-07-19 09:12:00,85.8,67.7,29.90,SW,225,10.4,-999.0,55,-99.99,,,0.00,Acu-Link.com,2013-07-19 14:12:00,
2013-07-19 09:27:00,86.9,68.8,29.90,South,180,4.2,-999.0,55,-99.99,,,0.00,Acu-Link.com,2013-07-19 14:27:00,
2013-07-19 09:42:00,87.8,67.9,29.90,West,270,6.3,-999.0,52,-99.99,,,0.00,Acu-Link.com,2013-07-19 14:42:00,
2013-07-19 09:57:00,88.3,66.7,29.90,SSW,202,8.9,-999.0,49,-99.99,,,0.00,Acu-Link.com,2013-07-19 14:57:00,
2013-07-19 10:13:00,87.4,67.6,29.90,SW,225,12.5,-999.0,52,-99.99,,,0.00,Acu-Link.com,2013-07-19 15:13:00,
2013-07-19 10:28:00,88.0,68.1,29.89,South,180,5.3,-999.0,52,-99.99,,,0.00,Acu-Link.com,2013-07-19 15:28:00,
2013-07-19 10:43:00,88.0,68.1,29.89,SW,225,8.3,-999.0,52,-99.99,,,0.00,Acu-Link.com,2013-07-19 15:43:00,
2013-07-19 10:58:00,89.6,67.9,29.89,SSW,202,8.3,-999.0,49,-99.99,,,0.00,Acu-Link.com,2013-07-19 15:58:00,
2013-07-19 11:13:00,90.1,67.7,29.88,SW,225,7.3,-999.0,48,-99.99,,,0.00,Acu-Link.com,2013-07-19 16:13:00,
2013-07-19 11:29:00,90.9,67.2,29.88,SW,225,4.2,-999.0,46,-99.99,,,0.00,Acu-Link.com,2013-07-19 16:29:00,
2013-07-19 11:44:00,91.0,66.7,29.87,SW,225,4.7,-999.0,45,-99.99,,,0.00,Acu-Link.com,2013-07-19 16:44:00,
2013-07-19 11:59:00,92.1,67.7,29.87,SW,225,5.8,-999.0,45,-99.99,,,0.00,Acu-Link.com,2013-07-19 16:59:00,
2013-07-19 12:15:00,92.1,67.7,29.86,WSW,247,9.9,-999.0,45,-99.99,,,0.00,Acu-Link.com,2013-07-19 17:15:00,
2013-07-19 12:30:00,91.6,67.2,29.85,SW,225,4.2,-999.0,45,-99.99,,,0.00,Acu-Link.com,2013-07-19 17:30:00,
2013-07-19 12:45:00,91.9,67.5,29.85,SW,225,5.3,-999.0,45,-99.99,,,0.00,Acu-Link.com,2013-07-19 17:45:00,
2013-07-19 13:00:00,92.3,67.2,29.85,SSW,202,5.3,-999.0,44,-99.99,,,0.00,Acu-Link.com,2013-07-19 18:00:00,
2013-07-19 13:15:00,92.7,67.5,29.85,SW,225,3.7,-999.0,44,-99.99,,,0.00,Acu-Link.com,2013-07-19 18:15:00,
2013-07-19 13:30:00,93.0,66.5,29.84,SW,225,8.3,-999.0,42,-99.99,,,0.00,Acu-Link.com,2013-07-19 18:30:00,
2013-07-19 13:45:00,93.0,66.5,29.84,SW,225,8.3,-999.0,42,-99.99,,,0.00,Acu-Link.com,2013-07-19 18:45:00,
2013-07-19 14:00:00,92.8,65.6,29.83,WSW,247,5.8,-999.0,41,-99.99,,,0.00,Acu-Link.com,2013-07-19 19:00:00,
2013-07-19 14:16:00,93.9,66.6,29.82,SSW,202,4.2,-999.0,41,-99.99,,,0.00,Acu-Link.com,2013-07-19 19:16:00,
2013-07-19 14:31:00,94.1,66.0,29.82,West,270,5.8,-999.0,40,-99.99,,,0.00,Acu-Link.com,2013-07-19 19:31:00,
2013-07-19 14:47:00,94.1,66.0,29.82,SSW,202,7.3,-999.0,40,-99.99,,,0.00,Acu-Link.com,2013-07-19 19:47:00,
2013-07-19 15:02:00,93.9,65.1,29.81,WSW,247,7.3,-999.0,39,-99.99,,,0.00,Acu-Link.com,2013-07-19 20:02:00,
2013-07-19 15:17:00,94.3,65.5,29.81,WSW,247,4.2,-999.0,39,-99.99,,,0.00,Acu-Link.com,2013-07-19 20:17:00,
2013-07-19 15:33:00,94.3,65.5,29.81,SSW,202,4.7,-999.0,39,-99.99,,,0.00,Acu-Link.com,2013-07-19 20:33:00,
2013-07-19 15:48:00,94.8,65.9,29.81,SSW,202,4.7,-999.0,39,-99.99,,,0.00,Acu-Link.com,2013-07-19 20:48:00,
2013-07-19 16:03:00,95.2,66.3,29.81,SSW,202,4.2,-999.0,39,-99.99,,,0.00,Acu-Link.com,2013-07-19 21:03:00,
2013-07-19 16:18:00,95.4,65.7,29.81,SW,225,7.3,-999.0,38,-99.99,,,0.00,Acu-Link.com,2013-07-19 21:18:00,
2013-07-19 16:34:00,95.4,64.9,29.80,SW,225,3.7,-999.0,37,-99.99,,,0.00,Acu-Link.com,2013-07-19 21:34:00,
2013-07-19 16:49:00,95.4,65.7,29.80,SSW,202,6.8,-999.0,38,-99.99,,,0.00,Acu-Link.com,2013-07-19 21:49:00,
2013-07-19 17:05:00,94.8,65.9,29.80,SW,225,3.2,-999.0,39,-99.99,,,0.00,Acu-Link.com,2013-07-19 22:05:00,
2013-07-19 17:20:00,95.0,66.8,29.79,SW,225,3.7,-999.0,40,-99.99,,,0.00,Acu-Link.com,2013-07-19 22:20:00,
2013-07-19 17:35:00,95.5,65.8,29.79,WSW,247,8.3,-999.0,38,-99.99,,,0.00,Acu-Link.com,2013-07-19 22:35:00,
2013-07-19 17:50:00,96.8,66.2,29.79,WSW,247,7.8,-999.0,37,-99.99,,,0.00,Acu-Link.com,2013-07-19 22:50:00,
2013-07-19 18:05:00,95.9,66.2,29.78,SW,225,4.2,-999.0,38,-99.99,,,0.00,Acu-Link.com,2013-07-19 23:05:00,
2013-07-19 18:20:00,95.5,65.8,29.77,SW,225,5.8,-999.0,38,-99.99,,,0.00,Acu-Link.com,2013-07-19 23:20:00,
2013-07-19 18:36:00,92.8,67.0,29.77,WSW,247,4.2,-999.0,43,-99.99,,,0.00,Acu-Link.com,2013-07-19 23:36:00,
2013-07-19 18:51:00,90.7,66.4,29.77,WSW,247,3.2,-999.0,45,-99.99,,,0.00,Acu-Link.com,2013-07-19 23:51:00,
2013-07-19 19:06:00,90.1,67.1,29.78,SW,225,2.7,-999.0,47,-99.99,,,0.00,Acu-Link.com,2013-07-20 00:06:00,
2013-07-19 19:21:00,89.4,67.1,29.79,West,270,3.2,-999.0,48,-99.99,,,0.00,Acu-Link.com,2013-07-20 00:21:00,
2013-07-19 19:36:00,81.5,66.3,29.80,West,270,9.9,-999.0,60,-99.99,,,0.00,Acu-Link.com,2013-07-20 00:36:00,
2013-07-19 19:52:00,75.7,64.4,29.79,ESE,112,2.2,-999.0,68,-99.99,,,0.01,Acu-Link.com,2013-07-20 00:52:00,
2013-07-19 20:07:00,76.5,65.6,29.80,NNE,22,1.7,-999.0,69,-99.99,,,0.03,Acu-Link.com,2013-07-20 01:07:00,
2013-07-19 20:22:00,77.0,66.4,29.79,WSW,247,0.0,-999.0,70,-99.99,,,0.03,Acu-Link.com,2013-07-20 01:22:00,
2013-07-19 20:38:00,76.5,66.8,29.79,SSW,202,0.0,-999.0,72,-99.99,,,0.03,Acu-Link.com,2013-07-20 01:38:00,
2013-07-19 20:53:00,76.5,66.8,29.81,SW,225,2.7,-999.0,72,-99.99,,,0.03,Acu-Link.com,2013-07-20 01:53:00,
2013-07-19 21:08:00,77.0,66.9,29.81,SSW,202,0.0,-999.0,71,-99.99,,,0.03,Acu-Link.com,2013-07-20 02:08:00,
2013-07-19 21:23:00,77.2,67.9,29.81,WNW,292,0.0,-999.0,73,-99.99,,,0.03,Acu-Link.com,2013-07-20 02:23:00,
2013-07-19 21:38:00,77.2,68.3,29.83,West,270,5.3,-999.0,74,-99.99,,,0.03,Acu-Link.com,2013-07-20 02:38:00,
2013-07-19 21:54:00,77.4,68.0,29.83,WNW,292,2.2,-999.0,73,-99.99,,,0.03,Acu-Link.com,2013-07-20 02:54:00,
2013-07-19 22:09:00,77.2,67.5,29.83,West,270,4.2,-999.0,72,-99.99,,,0.03,Acu-Link.com,2013-07-20 03:09:00,
2013-07-19 22:24:00,77.4,67.6,29.83,NNW,337,1.1,-999.0,72,-99.99,,,0.03,Acu-Link.com,2013-07-20 03:24:00,
2013-07-19 22:40:00,77.0,67.7,29.83,West,270,2.2,-999.0,73,-99.99,,,0.03,Acu-Link.com,2013-07-20 03:40:00,
2013-07-19 22:55:00,77.2,68.3,29.83,West,270,2.7,-999.0,74,-99.99,,,0.03,Acu-Link.com,2013-07-20 03:55:00,
2013-07-19 23:10:00,76.5,67.6,29.84,West,270,0.0,-999.0,74,-99.99,,,0.03,Acu-Link.com,2013-07-20 04:10:00,
2013-07-19 23:26:00,76.1,67.6,29.84,East,90,0.0,-999.0,75,-99.99,,,0.03,Acu-Link.com,2013-07-20 04:26:00,
2013-07-19 23:41:00,75.6,67.1,29.84,West,270,0.0,-999.0,75,-99.99,,,0.03,Acu-Link.com,2013-07-20 04:41:00,
2013-07-19 23:56:00,75.0,66.9,29.84,West,270,0.0,-999.0,76,-99.99,,,0.03,Acu-Link.com,2013-07-20 04:56:00,